User: anonymous   Login
Location: ?????????
(38.0736°N, 23.2119°E)
Time: 01:39:44
(UTC+00:00)
Language:

USA 186 - Orbit

View from above orbital plane
View from above orbital plane
View from above satellite
View from above satellite

Ground track
Ground track

The orbit data is extracted from the following two-line orbital elements,

1 28888U 05042A   24175.10575096 0.00014000  00000-0  21431-3 0    09
2 28888  97.0643 214.2042 0042176 190.7583 169.2416 15.53289801    04
Epoch (UTC): 23 June 2024 02:32:16
Eccentricity: 0.0042176
inclination: 97.0643°
perigee height: 378 km
apogee height: 436 km
right ascension of ascending node: 214.2042°
argument of perigee: 190.7583°
revolutions per day: 15.53289801
mean anomaly at epoch: 169.2416°
orbit number at epoch: 0

The dashed part of the orbit path shows where the satellite is in the earth's shadow,  

DLR